This is the latest recevied weather packets stored in our database for station/object K3HW. If no packets are shown the sender has not sent any weather packets the latest 10 day(s).
| Time | Temp. | Humidity | Pressure | Rain* | Wind** | Luminosity | Snow |
|---|---|---|---|---|---|---|---|
| 1777666921 | 17.78° C | 39% | 1014.7 hPa | 0 mm | - | 195 W/m² | - |
| 1777666618 | 17.78° C | 43% | 1014.6 hPa | 0 mm | - | 49 W/m² | - |
| 1777666314 | 17.78° C | 39% | 1014.9 hPa | 0 mm | - | 70 W/m² | - |
| 1777666011 | 17.78° C | 42% | 1014.8 hPa | 0 mm | - | 306 W/m² | - |
| 1777665709 | 17.78° C | 40% | 1014.9 hPa | 0 mm | - | 42 W/m² | - |
| 1777665406 | 17.78° C | 41% | 1014.8 hPa | 0 mm | - | 48 W/m² | - |
| 1777665101 | 17.78° C | 43% | 1014.8 hPa | 0 mm | - | 75 W/m² | - |
| 1777664797 | 17.22° C | 42% | 1015.1 hPa | 0 mm | - | 47 W/m² | - |
| 1777664493 | 17.78° C | 42% | 1015.1 hPa | 0 mm | - | 275 W/m² | - |
| 1777664191 | 17.78° C | 39% | 1015 hPa | 0 mm | - | 122 W/m² | - |
| 1777663889 | 17.22° C | 40% | 1015 hPa | 0 mm | - | 71 W/m² | - |
| 1777663586 | 17.22° C | 42% | 1015.1 hPa | 0 mm | - | 48 W/m² | - |
| 1777663283 | 17.22° C | 43% | 1015.2 hPa | 0 mm | - | 140 W/m² | - |
| 1777662980 | 17.22° C | 41% | 1015.3 hPa | 0 mm | - | 162 W/m² | - |
| 1777662677 | 17.22° C | 46% | 1015.4 hPa | 0 mm | - | 135 W/m² | - |
| 1777662374 | 17.22° C | 42% | 1015.5 hPa | 0 mm | - | 167 W/m² | - |
| 1777662069 | 17.22° C | 43% | 1015.5 hPa | 0 mm | - | 78 W/m² | - |
| 1777661765 | 17.78° C | 41% | 1015.6 hPa | 0 mm | - | 102 W/m² | - |
| 1777661461 | 17.22° C | 47% | 1015.9 hPa | 0 mm | - | 169 W/m² | - |
| 1777661157 | 16.67° C | 44% | 1015.6 hPa | 0 mm | - | 178 W/m² | - |
| 1777660852 | 17.22° C | 44% | 1015.8 hPa | 0 mm | - | 95 W/m² | - |
| 1777660549 | 16.67° C | 46% | 1015.8 hPa | 0 mm | - | 246 W/m² | - |
| 1777660245 | 16.67° C | 42% | 1015.9 hPa | 0 mm | - | 110 W/m² | - |
| 1777659942 | 16.67° C | 46% | 1015.9 hPa | 0 mm | - | 155 W/m² | - |
| 1777659639 | 16.67° C | 43% | 1015.9 hPa | 0 mm | - | 87 W/m² | - |
* Rain latest hour (hover to see other rain measurements)
** Current wind speed in m/s (hover to see current wind gust speed)